Volver al catálogo

STARLINK-11349

ActivoComunicacionesVLEO
NORAD 61544·PAYLOAD·🇺🇸 United States

Lanzado Oct 15, 2024 desde Vandenberg Space Force Base

Loading…

Próximos Pases (próximas 24 horas)

TLE

ActualizadoSource: CelesTrak SupGP

Época: Sep 15, 2026, 02:41 UTC

1 61544C 24184N   26258.11229167 -.00062336  00000+0 -51345-3 0  2581
2 61544  53.1574  22.6176 0001079  86.9821  11.4694 15.69741997    16

Sigue STARLINK-11349 en tiempo real con AllMySat

Download on the App Store